This demonstration page uses our WeatherBlox Daily Observations layout. Learn more.

Left ArrowRight Arrow

31.84235, -102.49876

Hourly Observations for October 4, 2022

Temp ( °F °C ) Dew Point ( °F °C ) Humidity (%) Winds ( mph kmh ) Pressure ( in mb ) Visibility ( mi km ) Precip ( " mm )
12:53 am 00:53 Clear 68 20 50 10 53 53 S 10 17 30.02 1017 10 16 0.00 0.00
1:53 am 01:53 Clear 66 18.9 52 11.1 61 61 S 7 11 30.01 1016 10 16 0.00 0.00
2:53 am 02:53 Clear 62 16.7 52 11.1 70 70 Calm 30.01 1016 10 16 0.00 0.00
3:53 am 03:53 Clear 60 15.6 50 10 69 69 E 5 7 30.00 1016 10 16 0.00 0.00
4:53 am 04:53 Clear 59 15 49 9.4 69 69 E 8 13 30.00 1016 10 16 0.00 0.00
5:53 am 05:53 Clear 59 15 49 9.4 69 69 ESE 8 13 30.00 1016 10 16 0.00 0.00
6:53 am 06:53 Clear 58 14.4 50 10 75 75 ESE 6 9 30.01 1016 10 16 0.00 0.00
7:53 am 07:53 Sunny 59 15 51 10.6 75 75 ESE 9 15 30.03 1017 10 16 0.00 0.00
8:53 am 08:53 Sunny 63 17.2 51 10.6 65 65 SE 12 19 30.03 1017 10 16 0.00 0.00
9:53 am 09:53 Sunny 68 20 52 11.1 57 57 SSE 14 22 30.04 1017 10 16 0.00 0.00
10:53 am 10:53 Sunny 72 22.2 50 10 46 46 SSE 16 26 30.04 1017 10 16 0.00 0.00
11:53 am 11:53 Sunny 76 24.4 52 11.1 43 43 S 14 22 30.02 1017 10 16 0.00 0.00
12:53 pm 12:53 Sunny 78 25.6 53 11.7 42 42 SSW 12 19 30.00 1016 10 16 0.00 0.00
1:53 pm 13:53 Sunny 80 26.7 53 11.7 39 39 SSE 12 19 29.97 1015 10 16 0.00 0.00
2:53 pm 14:53 Sunny 82 27.8 52 11.1 35 35 S 12 19 29.94 1014 10 16 0.00 0.00
3:53 pm 15:53 Sunny 82 27.8 51 10.6 34 34 SSE 10 17 29.92 1013 10 16 0.00 0.00
4:53 pm 16:53 Sunny 83 28.3 51 10.6 33 33 S 9 15 29.91 1013 10 16 0.00 0.00
5:53 pm 17:53 Sunny 83 28.3 51 10.6 33 33 S 12 19 29.90 1013 10 16 0.00 0.00
6:53 pm 18:53 Sunny 82 27.8 51 10.6 34 34 SSE 10 17 29.91 1013 10 16 0.00 0.00
7:53 pm 19:53 Clear 79 26.1 50 10 36 36 SSE 8 13 29.93 1014 10 16 0.00 0.00
8:53 pm 20:53 Clear 76 24.4 50 10 40 40 SSE 7 11 29.94 1014 10 16 0.00 0.00
9:53 pm 21:53 Mostly Clear 76 24.4 50 10 40 40 S 9 15 29.96 1015 10 16 0.00 0.00
10:53 pm 22:53 Mostly Clear 73 22.8 50 10 44 44 S 8 13 29.97 1015 10 16 0.00 0.00
11:53 pm 23:53 Clear 72 22.2 51 10.6 48 48 S 9 15 29.98 1015 10 16 0.00 0.00

Powered by AerisWeather